Regional Weather Roundup
Issued by NWS Jackson, KY

Home | Current Version | Previous Version | Text Only | Print | Product List | Glossary Off
Versions: 1 2 3 4 5 6 7 8 9 10 11 12 13 14 15 16 17 18 19 20 21 22 23 24 25 26 27 28 29 30 31 32 33 34 35 36 37 38 39 40 41 42 43 44 45 46 47 48 49 50

000
ASUS43 KJKL 241510
RWRJKL

EAST KENTUCKY HOURLY WEATHER ROUNDUP
NATIONAL WEATHER SERVICE JACKSON KY
1100 AM EDT SUN JUL 24 2016

NOTE: "FAIR" INDICATES FEW OR NO CLOUDS BELOW 12,000 FEET WITH
NO SIGNIFICANT WEATHER AND/OR OBSTRUCTIONS TO VISIBILITY.

* THESE REPORTS ARE NOT UNDER NWS QUALITY CONTROL AND MAY NOT
  REPORT WEATHER SUCH AS PRECIPITATION AND FOG.

KYZ079-080-083-085-087-088-110-112-115-119-120-241600
...EASTERN KENTUCKY...

CITY           SKY/WX    TMP DP  RH WIND       PRES   REMARKS
JACKSON        MOSUNNY   82  74  76 CALM      30.08R
LONDON         SUNNY     84  70  62 SW8       30.07S
SOMERSET*      SUNNY     81  72  74 S3        30.07S
MONTICELLO*    SUNNY    N/A N/A N/A VRB6      30.08S
WILLIAMSBURG*  SUNNY     82  75  78 W3        30.08S
MIDDLESBORO*   SUNNY     81  73  75 E5        30.09S
HARLAN APT*      N/A     81  70  69 CALM      30.10S
PIKE CO APT*     N/A     80  74  80 CALM      30.09R
MOREHEAD APT*  MOSUNNY   84  73  70 VRB3      30.07R HX  91
ASHLAND*       MOSUNNY   88  77  70 CALM      30.02R HX 100
$$

KYZ035-036-041-042-044-050-067-078-099-241600
...CENTRAL KENTUCKY...

CITY           SKY/WX    TMP DP  RH WIND       PRES   REMARKS
MT STERLING*   SUNNY     86  77  74 W5        30.07R HX  97
FLEMING/MASON* MOSUNNY   86  75  69 W3        30.06R HX  94
DANVILLE*      SUNNY     84  73  70 SW3       30.07R HX  91
RICHMOND*      SUNNY     84  72  65 CALM      30.05S
LEXINGTON      SUNNY     86  73  65 W6        30.06R HX  93
FRANKFORT      SUNNY     86  75  69 CALM      30.03S HX  95
LOUISVILLE     PTSUNNY   88  75  65 VRB3      30.01S HX  97
LEBANON*         N/A     82  75  78 SW6       30.05S
GLASGOW*       SUNNY     83  73  70 S5        30.04S
BOWLING GREEN  SUNNY     85  75  72 SW5       30.03S HX  93
$$

KYZ091>093-OHZ055-061-077-WVZ005-015-034-035-042-241600
...SOUTHERN OHIO/WEST VIRGINIA...

CITY           SKY/WX    TMP DP  RH WIND       PRES   REMARKS
COVINGTON      CLOUDY    88  75  65 VRB7      30.04R HX  97
COLUMBUS       PTSUNNY   87  74  64 SW8       30.01S HX  95
DAYTON         PTSUNNY   85  73  67 SW8       30.04S HX  91
WILMINGTON     MOSUNNY   87  75  67 VRB3      30.04R HX  96
HUNTINGTON       N/A     86  73  65 SW6       30.03S HX  93
CHARLESTON       N/A     87  73  62 CALM      30.04S HX  94
PINEVILLE*       N/A     86  70  58 MISG      30.14S HX  91
BECKLEY          N/A     84  68  58 SW5       30.14S
BLUEFIELD        N/A     80  68  66 S3        30.18R
LOGAN CO APT*    N/A     82  73  74 S3        30.08S
$$

VAZ002-007-008-TNZ017-027-036-066-071-241600
...SOUTHWEST VIRGINIA/EAST TENNESSEE...

CITY           SKY/WX    TMP DP  RH WIND       PRES   REMARKS
WISE*            N/A     82  63  51 S6        30.17S
JONESVILLE*      N/A     82  72  69 SW6       30.12S
ABINGDON*        N/A     83  71  68 CALM      30.14R
BRISTOL        PTSUNNY   84  68  58 VRB3      30.10F
MORRISTOWN*    SUNNY     84  72  65 VRB6      30.09S
SEVIERVILLE*     N/A     82  66  57 NW3       30.08R
KNOXVILLE      CLOUDY    83  70  64 SW3       30.07S
OAK RIDGE      CLOUDY    82  71  69 W5        30.09S
CROSSVILLE     CLOUDY    81  71  71 CALM      30.12S
NASHVILLE      MOSUNNY   87  71  58 W5        30.04S HX  93
$$

...KEY TO REMARKS...
VSB - VISIBILITY IN MILES
WCI - WIND CHILL INDEX
HX  - HEAT INDEX

$$



USA.gov is the U.S. government's official web portal to all federal, state and local government web resources and services.